Data No,UTC Date,UTC Time,Latitude,Longitude,Course(deg),Temp(degC),Sal(psu)
481,2022/10/28,8:00,42-36.81N,141-36.95E,210,14.189,33.18
482,2022/10/28,8:01,42-36.58N,141-36.76E,211,14.185,33.1495
483,2022/10/28,8:02,42-36.34N,141-36.56E,210,14.204,33.1094
484,2022/10/28,8:03,42-36.07N,141-36.45E,186,14.15,33.0864
485,2022/10/28,8:04,42-35.81N,141-36.50E,168,14.431,33.0683
486,2022/10/28,8:05,42-35.54N,141-36.60E,165,15.016,32.8048
487,2022/10/28,8:06,42-35.26N,141-36.70E,163,15.253,33.1315
488,2022/10/28,8:07,42-34.98N,141-36.82E,162,15.397,33.2671
489,2022/10/28,8:08,42-34.70N,141-36.94E,162,15.538,33.3781
490,2022/10/28,8:09,42-34.41N,141-37.07E,162,15.643,33.4238
491,2022/10/28,8:10,42-34.11N,141-37.20E,162,15.806,33.4428
492,2022/10/28,8:11,42-33.83N,141-37.32E,161,15.921,33.4555
493,2022/10/28,8:12,42-33.52N,141-37.46E,161,15.978,33.4684
494,2022/10/28,8:13,42-33.24N,141-37.58E,162,16,33.4802
495,2022/10/28,8:14,42-32.95N,141-37.73E,158,16.052,33.4873
496,2022/10/28,8:15,42-32.64N,141-37.94E,150,16.264,33.4924
497,2022/10/28,8:16,42-32.41N,141-38.14E,145,16.42,33.5247
498,2022/10/28,8:17,42-32.17N,141-38.40E,140,16.408,33.5755
499,2022/10/28,8:18,42-31.93N,141-38.69E,134,16.345,33.6103
500,2022/10/28,8:19,42-31.74N,141-39.01E,128,16.235,33.5992
501,2022/10/28,8:20,42-31.54N,141-39.35E,127,16.134,33.5779
502,2022/10/28,8:21,42-31.35N,141-39.75E,123,16.376,33.5335
503,2022/10/28,8:22,42-31.19N,141-40.09E,121,16.583,33.5226
504,2022/10/28,8:23,42-31.03N,141-40.44E,120,16.587,33.5825
505,2022/10/28,8:24,42-30.87N,141-40.85E,118,16.601,33.6318
506,2022/10/28,8:25,42-30.71N,141-41.23E,118,16.209,33.6585
507,2022/10/28,8:26,42-30.58N,141-41.56E,118,16.306,33.6231
508,2022/10/28,8:27,42-30.44N,141-41.92E,118,16.317,33.5619
509,2022/10/28,8:28,42-30.29N,141-42.30E,118,16.25,33.5743
510,2022/10/28,8:29,42-30.13N,141-42.68E,118,16.185,33.5743
511,2022/10/28,8:30,42-29.98N,141-43.06E,118,16.032,33.5601
512,2022/10/28,8:31,42-29.83N,141-43.43E,118,15.946,33.5327
513,2022/10/28,8:32,42-29.69N,141-43.78E,118,15.92,33.5031
514,2022/10/28,8:33,42-29.52N,141-44.15E,121,15.906,33.4898
515,2022/10/28,8:34,42-29.36N,141-44.50E,122,15.902,33.4909
516,2022/10/28,8:35,42-29.20N,141-44.87E,119,15.898,33.4906
517,2022/10/28,8:36,42-29.06N,141-45.24E,118,15.901,33.4909
518,2022/10/28,8:37,42-28.91N,141-45.61E,117,15.903,33.4933
519,2022/10/28,8:38,42-28.77N,141-45.99E,118,15.905,33.497
520,2022/10/28,8:39,42-28.62N,141-46.35E,118,15.905,33.4963
521,2022/10/28,8:40,42-28.47N,141-46.72E,118,15.915,33.491
522,2022/10/28,8:41,42-28.33N,141-47.08E,118,15.926,33.4948
523,2022/10/28,8:42,42-28.17N,141-47.48E,118,15.929,33.4967
524,2022/10/28,8:43,42-28.01N,141-47.87E,118,15.91,33.5
525,2022/10/28,8:44,42-27.86N,141-48.24E,118,15.886,33.5001
526,2022/10/28,8:45,42-27.72N,141-48.60E,118,15.897,33.4993
527,2022/10/28,8:46,42-27.57N,141-48.97E,118,16.009,33.4997
528,2022/10/28,8:47,42-27.43N,141-49.32E,118,16.265,33.5014
529,2022/10/28,8:48,42-27.28N,141-49.69E,118,16.394,33.5421
530,2022/10/28,8:49,42-27.14N,141-50.06E,118,16.532,33.5864
531,2022/10/28,8:50,42-26.99N,141-50.43E,118,16.665,33.6281
532,2022/10/28,8:51,42-26.85N,141-50.78E,118,16.775,33.6563
533,2022/10/28,8:52,42-26.71N,141-51.15E,118,16.871,33.6875
534,2022/10/28,8:53,42-26.56N,141-51.52E,118,16.953,33.7133
535,2022/10/28,8:54,42-26.41N,141-51.88E,118,17.029,33.7375
536,2022/10/28,8:55,42-26.26N,141-52.26E,118,17.085,33.7584
537,2022/10/28,8:56,42-26.12N,141-52.63E,118,17.097,33.7792
538,2022/10/28,8:57,42-25.97N,141-52.99E,118,17.066,33.7877
539,2022/10/28,8:58,42-25.82N,141-53.36E,118,17.006,33.7936
540,2022/10/28,8:59,42-25.68N,141-53.73E,118,16.994,33.7838
541,2022/10/28,9:00,42-25.55N,141-54.06E,118,16.963,33.7708
542,2022/10/28,9:01,42-25.41N,141-54.41E,118,16.925,33.765
543,2022/10/28,9:02,42-25.25N,141-54.78E,118,16.835,33.7564
544,2022/10/28,9:03,42-25.10N,141-55.16E,119,16.741,33.7472
545,2022/10/28,9:04,42-24.94N,141-55.54E,119,16.598,33.7295
546,2022/10/28,9:05,42-24.78N,141-55.92E,119,16.416,33.7073
547,2022/10/28,9:06,42-24.64N,141-56.27E,119,16.249,33.6745
548,2022/10/28,9:07,42-24.49N,141-56.63E,119,16.148,33.6473
549,2022/10/28,9:08,42-24.33N,141-57.02E,119,16.122,33.6178
550,2022/10/28,9:09,42-24.18N,141-57.37E,119,16.156,33.5995
551,2022/10/28,9:10,42-24.03N,141-57.75E,118,16.138,33.599
552,2022/10/28,9:11,42-23.88N,141-58.12E,118,16.195,33.5979
553,2022/10/28,9:12,42-23.73N,141-58.49E,119,16.247,33.5956
554,2022/10/28,9:13,42-23.57N,141-58.87E,119,16.176,33.6083
555,2022/10/28,9:14,42-23.42N,141-59.24E,118,16.175,33.6161
556,2022/10/28,9:15,42-23.27N,141-59.61E,118,16.105,33.6148
557,2022/10/28,9:16,42-23.12N,141-59.99E,118,16.071,33.6121
558,2022/10/28,9:17,42-22.97N,142-00.35E,118,16.098,33.6046
559,2022/10/28,9:18,42-22.82N,142-00.74E,118,16.161,33.5926
560,2022/10/28,9:19,42-22.68N,142-01.11E,118,16.198,33.5852
561,2022/10/28,9:20,42-22.53N,142-01.49E,117,16.187,33.5795
562,2022/10/28,9:21,42-22.38N,142-01.86E,118,16.163,33.5667
563,2022/10/28,9:22,42-22.23N,142-02.23E,118,16.15,33.5431
564,2022/10/28,9:23,42-22.08N,142-02.61E,118,16.131,33.5288
565,2022/10/28,9:24,42-21.94N,142-02.99E,118,16.123,33.513
566,2022/10/28,9:25,42-21.78N,142-03.37E,118,16.103,33.5084
567,2022/10/28,9:26,42-21.63N,142-03.75E,118,16.076,33.5091
568,2022/10/28,9:27,42-21.47N,142-04.16E,118,16.027,33.5102
569,2022/10/28,9:28,42-21.32N,142-04.55E,117,15.958,33.5147
570,2022/10/28,9:29,42-21.19N,142-04.86E,118,15.826,33.5192
571,2022/10/28,9:30,42-21.04N,142-05.23E,118,15.577,33.5179
572,2022/10/28,9:31,42-20.90N,142-05.60E,118,15.431,33.5075
573,2022/10/28,9:32,42-20.72N,142-06.03E,118,15.37,33.5199
574,2022/10/28,9:33,42-20.58N,142-06.40E,117,15.39,33.5139
575,2022/10/28,9:34,42-20.45N,142-06.71E,118,15.493,33.4969
576,2022/10/28,9:35,42-20.31N,142-07.08E,117,15.568,33.484
577,2022/10/28,9:36,42-20.16N,142-07.45E,118,15.613,33.4754
578,2022/10/28,9:37,42-20.00N,142-07.82E,120,15.577,33.4846
579,2022/10/28,9:38,42-19.84N,142-08.17E,122,15.559,33.4984
580,2022/10/28,9:39,42-19.68N,142-08.52E,122,15.531,33.5008
581,2022/10/28,9:40,42-19.52N,142-08.87E,122,15.513,33.5001
582,2022/10/28,9:41,42-19.35N,142-09.22E,122,15.469,33.4942
583,2022/10/28,9:42,42-19.19N,142-09.57E,121,15.502,33.4914
584,2022/10/28,9:43,42-19.03N,142-09.92E,121,15.621,33.4923
585,2022/10/28,9:44,42-18.87N,142-10.27E,121,15.739,33.4905
586,2022/10/28,9:45,42-18.70N,142-10.62E,122,15.827,33.4946
587,2022/10/28,9:46,42-18.54N,142-10.97E,121,15.899,33.4922
588,2022/10/28,9:47,42-18.38N,142-11.31E,121,15.999,33.4922
589,2022/10/28,9:48,42-18.22N,142-11.67E,121,16.162,33.5009
590,2022/10/28,9:49,42-18.06N,142-12.01E,121,16.298,33.5285
591,2022/10/28,9:50,42-17.90N,142-12.37E,122,16.259,33.5757
592,2022/10/28,9:51,42-17.73N,142-12.72E,122,16.154,33.6189
593,2022/10/28,9:52,42-17.57N,142-13.06E,122,16.073,33.6165
594,2022/10/28,9:53,42-17.41N,142-13.41E,122,16.047,33.5842
595,2022/10/28,9:54,42-17.25N,142-13.76E,122,16.019,33.5523
596,2022/10/28,9:55,42-17.08N,142-14.10E,122,15.957,33.5426
597,2022/10/28,9:56,42-16.92N,142-14.46E,122,15.91,33.5369
598,2022/10/28,9:57,42-16.75N,142-14.79E,122,15.827,33.5325
599,2022/10/28,9:58,42-16.59N,142-15.15E,122,15.667,33.5273
600,2022/10/28,9:59,42-16.42N,142-15.50E,122,15.563,33.5133
601,2022/10/28,10:00,42-16.26N,142-15.84E,122,15.287,33.5015
602,2022/10/28,10:01,42-16.09N,142-16.19E,123,15.045,33.4944
603,2022/10/28,10:02,42-15.92N,142-16.53E,123,14.57,33.4839
604,2022/10/28,10:03,42-15.75N,142-16.88E,123,14.447,33.4686
605,2022/10/28,10:04,42-15.58N,142-17.23E,122,14.39,33.4608
606,2022/10/28,10:05,42-15.43N,142-17.57E,121,14.378,33.4537
607,2022/10/28,10:06,42-15.26N,142-17.93E,121,14.363,33.4456
608,2022/10/28,10:07,42-15.11N,142-18.28E,121,14.351,33.4462
609,2022/10/28,10:08,42-14.94N,142-18.63E,122,14.509,33.4437
610,2022/10/28,10:09,42-14.77N,142-18.99E,122,14.668,33.4553
611,2022/10/28,10:10,42-14.60N,142-19.33E,123,14.787,33.4826
612,2022/10/28,10:11,42-14.43N,142-19.67E,123,14.956,33.4989
613,2022/10/28,10:12,42-14.26N,142-20.03E,123,15.165,33.5111
614,2022/10/28,10:13,42-14.09N,142-20.36E,123,15.067,33.525
615,2022/10/28,10:14,42-13.92N,142-20.71E,123,15.009,33.5245
616,2022/10/28,10:15,42-13.76N,142-21.04E,123,15.094,33.5237
617,2022/10/28,10:16,42-13.58N,142-21.38E,123,15.192,33.5202
618,2022/10/28,10:17,42-13.42N,142-21.72E,124,15.274,33.5181
619,2022/10/28,10:18,42-13.24N,142-22.06E,124,15.272,33.5182
620,2022/10/28,10:19,42-13.07N,142-22.39E,124,15.219,33.5206
621,2022/10/28,10:20,42-12.90N,142-22.73E,124,15.181,33.5199
622,2022/10/28,10:21,42-12.73N,142-23.07E,124,15.165,33.5152
623,2022/10/28,10:22,42-12.56N,142-23.40E,124,15.197,33.5206
624,2022/10/28,10:23,42-12.38N,142-23.74E,124,15.162,33.5169
625,2022/10/28,10:24,42-12.22N,142-24.06E,124,15.068,33.5145
626,2022/10/28,10:25,42-12.04N,142-24.40E,124,15.012,33.5183
627,2022/10/28,10:26,42-11.87N,142-24.75E,124,14.96,33.5185
628,2022/10/28,10:27,42-11.70N,142-25.07E,123,14.798,33.5118
629,2022/10/28,10:28,42-11.53N,142-25.42E,124,14.752,33.5015
630,2022/10/28,10:29,42-11.36N,142-25.77E,124,14.732,33.5014
631,2022/10/28,10:30,42-11.19N,142-26.09E,124,14.736,33.4976
632,2022/10/28,10:31,42-11.01N,142-26.43E,125,14.798,33.4941
633,2022/10/28,10:32,42-10.83N,142-26.78E,124,14.791,33.4965
634,2022/10/28,10:33,42-10.65N,142-27.12E,124,14.743,33.4947
635,2022/10/28,10:34,42-10.48N,142-27.45E,124,14.703,33.493
636,2022/10/28,10:35,42-10.30N,142-27.80E,124,14.78,33.4912
637,2022/10/28,10:36,42-10.12N,142-28.17E,123,14.823,33.4971
638,2022/10/28,10:37,42-09.95N,142-28.50E,123,14.905,33.4957
639,2022/10/28,10:38,42-09.77N,142-28.87E,123,15.021,33.4964
640,2022/10/28,10:39,42-09.59N,142-29.22E,123,15.093,33.5098
641,2022/10/28,10:40,42-09.41N,142-29.59E,123,15.105,33.5081
642,2022/10/28,10:41,42-09.23N,142-29.96E,123,15.143,33.493
643,2022/10/28,10:42,42-09.04N,142-30.33E,123,15.169,33.469
644,2022/10/28,10:43,42-08.86N,142-30.70E,123,15.002,33.4495
645,2022/10/28,10:44,42-08.69N,142-31.06E,123,15.02,33.4377
646,2022/10/28,10:45,42-08.51N,142-31.43E,123,15.059,33.4356
647,2022/10/28,10:46,42-08.33N,142-31.80E,122,15.053,33.4316
648,2022/10/28,10:47,42-08.15N,142-32.18E,122,15.12,33.438
649,2022/10/28,10:48,42-07.97N,142-32.54E,122,15.317,33.444
650,2022/10/28,10:49,42-07.80N,142-32.91E,122,15.52,33.4338
651,2022/10/28,10:50,42-07.62N,142-33.28E,122,15.679,33.4146
652,2022/10/28,10:51,42-07.44N,142-33.66E,122,15.788,33.4037
653,2022/10/28,10:52,42-07.27N,142-34.02E,122,15.905,33.4034
654,2022/10/28,10:53,42-07.09N,142-34.39E,122,16.052,33.4067
655,2022/10/28,10:54,42-06.91N,142-34.77E,122,16.203,33.4102
656,2022/10/28,10:55,42-06.74N,142-35.13E,122,16.36,33.4283
657,2022/10/28,10:56,42-06.56N,142-35.51E,122,16.487,33.4629
658,2022/10/28,10:57,42-06.39N,142-35.87E,122,16.592,33.4959
659,2022/10/28,10:58,42-06.20N,142-36.25E,122,16.581,33.5265
660,2022/10/28,10:59,42-06.03N,142-36.62E,123,16.636,33.5223
661,2022/10/28,11:00,42-05.84N,142-37.00E,123,16.444,33.5397
662,2022/10/28,11:01,42-05.65N,142-37.38E,123,16.328,33.5302
663,2022/10/28,11:02,42-05.48N,142-37.74E,123,16.367,33.4818
664,2022/10/28,11:03,42-05.29N,142-38.13E,123,16.31,33.4518
665,2022/10/28,11:04,42-05.11N,142-38.50E,123,16.665,33.4486
666,2022/10/28,11:05,42-04.93N,142-38.87E,123,17.049,33.4444
667,2022/10/28,11:06,42-04.73N,142-39.26E,123,17.145,33.5587
668,2022/10/28,11:07,42-04.55N,142-39.63E,123,17.156,33.6311
669,2022/10/28,11:08,42-04.36N,142-40.01E,123,17.139,33.6645
670,2022/10/28,11:09,42-04.18N,142-40.38E,123,17.022,33.6726
671,2022/10/28,11:10,42-04.00N,142-40.77E,124,17.013,33.6648
672,2022/10/28,11:11,42-03.81N,142-41.15E,123,17.041,33.6643
673,2022/10/28,11:12,42-03.62N,142-41.53E,123,17.065,33.6759
674,2022/10/28,11:13,42-03.43N,142-41.91E,123,17.093,33.6883
675,2022/10/28,11:14,42-03.24N,142-42.28E,123,17.106,33.7045
676,2022/10/28,11:15,42-03.05N,142-42.67E,123,17.101,33.721
677,2022/10/28,11:16,42-02.86N,142-43.05E,123,17.11,33.7408
678,2022/10/28,11:17,42-02.67N,142-43.43E,123,17.109,33.758
679,2022/10/28,11:18,42-02.48N,142-43.81E,123,16.52,33.7811
680,2022/10/28,11:19,42-02.28N,142-44.21E,124,16.274,33.7715
681,2022/10/28,11:20,42-02.09N,142-44.57E,124,16.184,33.653
682,2022/10/28,11:21,42-01.89N,142-44.96E,124,16.148,33.5846
683,2022/10/28,11:22,42-01.70N,142-45.34E,124,16.128,33.5686
684,2022/10/28,11:23,42-01.50N,142-45.72E,124,16.104,33.5634
685,2022/10/28,11:24,42-01.31N,142-46.11E,124,16.076,33.563
686,2022/10/28,11:25,42-01.11N,142-46.48E,124,16.046,33.5643
687,2022/10/28,11:26,42-00.90N,142-46.88E,124,15.998,33.561
688,2022/10/28,11:27,42-00.68N,142-47.31E,124,15.918,33.558
689,2022/10/28,11:28,42-00.49N,142-47.68E,124,15.775,33.5667
690,2022/10/28,11:29,42-00.29N,142-48.07E,125,15.672,33.5615
691,2022/10/28,11:30,42-00.12N,142-48.40E,124,15.499,33.5686
692,2022/10/28,11:31,41-59.92N,142-48.77E,124,15.29,33.5923
693,2022/10/28,11:32,41-59.71N,142-49.19E,123,15.318,33.5951
694,2022/10/28,11:33,41-59.54N,142-49.56E,121,15.468,33.584
695,2022/10/28,11:34,41-59.37N,142-49.92E,121,15.491,33.5845
696,2022/10/28,11:35,41-59.20N,142-50.31E,121,15.486,33.5926
697,2022/10/28,11:36,41-59.02N,142-50.71E,121,15.52,33.6016
698,2022/10/28,11:37,41-58.85N,142-51.08E,121,15.554,33.6065
699,2022/10/28,11:38,41-58.66N,142-51.48E,121,15.564,33.6029
700,2022/10/28,11:39,41-58.48N,142-51.87E,121,15.54,33.5973
701,2022/10/28,11:40,41-58.31N,142-52.25E,120,15.404,33.5881
702,2022/10/28,11:41,41-58.13N,142-52.65E,121,15.079,33.5888
703,2022/10/28,11:42,41-57.96N,142-53.03E,121,15.094,33.5813
704,2022/10/28,11:43,41-57.76N,142-53.47E,121,15.184,33.5695
705,2022/10/28,11:44,41-57.61N,142-53.80E,121,15.209,33.5491
706,2022/10/28,11:45,41-57.42N,142-54.23E,121,15.251,33.5397
707,2022/10/28,11:46,41-57.25N,142-54.62E,121,15.296,33.5359
708,2022/10/28,11:47,41-57.07N,142-55.00E,121,15.258,33.5319
709,2022/10/28,11:48,41-56.92N,142-55.33E,120,15.147,33.5336
710,2022/10/28,11:49,41-56.76N,142-55.71E,120,14.998,33.5245
711,2022/10/28,11:50,41-56.59N,142-56.08E,120,15.063,33.5204
712,2022/10/28,11:51,41-56.40N,142-56.52E,120,15.141,33.5232
713,2022/10/28,11:52,41-56.24N,142-56.90E,119,15.214,33.5248
714,2022/10/28,11:53,41-56.08N,142-57.28E,119,15.249,33.5219
715,2022/10/28,11:54,41-55.91N,142-57.66E,119,15.299,33.5283
716,2022/10/28,11:55,41-55.75N,142-58.05E,119,15.354,33.5217
717,2022/10/28,11:56,41-55.59N,142-58.43E,119,15.433,33.5112
718,2022/10/28,11:57,41-55.44N,142-58.80E,119,15.527,33.4972
719,2022/10/28,11:58,41-55.28N,142-59.18E,119,15.647,33.4877
720,2022/10/28,11:59,41-55.14N,142-59.52E,118,15.793,33.4893
721,2022/10/28,12:00,41-54.97N,142-59.91E,118,15.911,33.4844
722,2022/10/28,12:01,41-54.82N,143-00.29E,118,15.935,33.4823
723,2022/10/28,12:02,41-54.66N,143-00.66E,119,15.951,33.4724
724,2022/10/28,12:03,41-54.47N,143-01.11E,119,15.948,33.4546
725,2022/10/28,12:04,41-54.31N,143-01.50E,119,15.942,33.4455
726,2022/10/28,12:05,41-54.15N,143-01.88E,119,15.812,33.4377
727,2022/10/28,12:06,41-53.98N,143-02.27E,120,15.874,33.4333
728,2022/10/28,12:07,41-53.82N,143-02.65E,119,15.966,33.4335
729,2022/10/28,12:08,41-53.65N,143-03.04E,119,15.97,33.4349
730,2022/10/28,12:09,41-53.48N,143-03.45E,119,15.877,33.4322
731,2022/10/28,12:10,41-53.32N,143-03.82E,119,15.577,33.4282
732,2022/10/28,12:11,41-53.15N,143-04.21E,120,15.364,33.4275
733,2022/10/28,12:12,41-52.99N,143-04.59E,119,15.086,33.4236
734,2022/10/28,12:13,41-52.81N,143-04.97E,120,14.45,33.4088
735,2022/10/28,12:14,41-52.64N,143-05.36E,120,14.165,33.3809
736,2022/10/28,12:15,41-52.47N,143-05.74E,120,14.08,33.3588
737,2022/10/28,12:16,41-52.30N,143-06.13E,120,14.046,33.353
738,2022/10/28,12:17,41-52.16N,143-06.45E,120,13.943,33.3529
739,2022/10/28,12:18,41-52.00N,143-06.82E,120,13.886,33.3516
740,2022/10/28,12:19,41-51.82N,143-07.21E,120,13.799,33.3576
741,2022/10/28,12:20,41-51.66N,143-07.59E,120,13.747,33.3515
742,2022/10/28,12:21,41-51.49N,143-07.97E,120,13.744,33.3377
743,2022/10/28,12:22,41-51.32N,143-08.35E,120,13.741,33.3391
744,2022/10/28,12:23,41-51.16N,143-08.73E,118,13.789,33.3459
745,2022/10/28,12:24,41-51.02N,143-09.13E,113,13.86,33.3549
746,2022/10/28,12:25,41-50.93N,143-09.56E,101,13.938,33.3684
747,2022/10/28,12:26,41-50.87N,143-09.99E,98,13.892,33.3858
748,2022/10/28,12:27,41-50.83N,143-10.42E,97,13.906,33.3871
749,2022/10/28,12:28,41-50.78N,143-10.88E,97,13.968,33.3815
750,2022/10/28,12:29,41-50.74N,143-11.31E,97,14.009,33.3822
751,2022/10/28,12:30,41-50.69N,143-11.74E,98,14.029,33.3794
752,2022/10/28,12:31,41-50.64N,143-12.18E,98,14.05,33.3872
753,2022/10/28,12:32,41-50.59N,143-12.61E,97,14.023,33.3777
754,2022/10/28,12:33,41-50.55N,143-13.06E,96,14.026,33.3823
755,2022/10/28,12:34,41-50.51N,143-13.50E,97,14.057,33.3723
756,2022/10/28,12:35,41-50.47N,143-13.93E,96,14.03,33.3744
757,2022/10/28,12:36,41-50.43N,143-14.38E,96,14.019,33.3669
758,2022/10/28,12:37,41-50.40N,143-14.82E,96,13.98,33.3723
759,2022/10/28,12:38,41-50.36N,143-15.26E,96,13.955,33.3696
760,2022/10/28,12:39,41-50.31N,143-15.71E,97,13.932,33.3693
761,2022/10/28,12:40,41-50.28N,143-16.13E,93,13.989,33.3689
762,2022/10/28,12:41,41-50.31N,143-16.57E,81,14.067,33.3594
763,2022/10/28,12:42,41-50.38N,143-17.01E,76,14.108,33.3621
764,2022/10/28,12:43,41-50.46N,143-17.43E,74,14.132,33.3587
765,2022/10/28,12:44,41-50.55N,143-17.86E,74,14.153,33.3502
766,2022/10/28,12:45,41-50.63N,143-18.28E,74,14.181,33.345
767,2022/10/28,12:46,41-50.72N,143-18.71E,74,14.216,33.3406
768,2022/10/28,12:47,41-50.81N,143-19.14E,75,14.249,33.3412
769,2022/10/28,12:48,41-50.89N,143-19.57E,74,14.261,33.3241
770,2022/10/28,12:49,41-50.98N,143-20.00E,74,14.252,33.3144
771,2022/10/28,12:50,41-51.07N,143-20.43E,73,14.256,33.2984
772,2022/10/28,12:51,41-51.17N,143-20.84E,71,14.283,33.2948
773,2022/10/28,12:52,41-51.27N,143-21.26E,71,14.318,33.286
774,2022/10/28,12:53,41-51.37N,143-21.68E,71,14.337,33.2751
775,2022/10/28,12:54,41-51.48N,143-22.10E,71,14.353,33.2717
776,2022/10/28,12:55,41-51.58N,143-22.52E,71,14.399,33.2942
777,2022/10/28,12:56,41-51.72N,143-22.90E,61,14.479,33.3036
778,2022/10/28,12:57,41-51.92N,143-23.25E,47,14.497,33.3416
779,2022/10/28,12:58,41-52.17N,143-23.50E,33,14.522,33.3914
780,2022/10/28,12:59,41-52.46N,143-23.73E,28,14.496,33.4508
781,2022/10/28,13:00,41-52.74N,143-23.93E,28,14.494,33.3983
782,2022/10/28,13:01,41-53.04N,143-24.14E,28,14.502,33.3941
783,2022/10/28,13:02,41-53.33N,143-24.36E,27,14.451,33.39
784,2022/10/28,13:03,41-53.62N,143-24.56E,29,14.448,33.3784
785,2022/10/28,13:04,41-53.90N,143-24.79E,31,14.482,33.3667
786,2022/10/28,13:05,41-54.18N,143-25.02E,31,14.491,33.3591
787,2022/10/28,13:06,41-54.44N,143-25.24E,31,14.455,33.3508
788,2022/10/28,13:07,41-54.71N,143-25.46E,31,14.423,33.3479
789,2022/10/28,13:08,41-54.99N,143-25.69E,31,14.443,33.3537
790,2022/10/28,13:09,41-55.25N,143-25.91E,30,14.434,33.3543
791,2022/10/28,13:10,41-55.52N,143-26.12E,30,14.417,33.3562
792,2022/10/28,13:11,41-55.84N,143-26.37E,30,14.362,33.3505
793,2022/10/28,13:12,41-56.11N,143-26.59E,31,14.212,33.362
794,2022/10/28,13:13,41-56.35N,143-26.78E,30,13.871,33.3779
795,2022/10/28,13:14,41-56.63N,143-27.00E,29,13.449,33.4004
796,2022/10/28,13:15,41-56.91N,143-27.21E,30,13.226,33.4449
797,2022/10/28,13:16,41-57.22N,143-27.46E,29,13.206,33.5062
798,2022/10/28,13:17,41-57.51N,143-27.68E,29,13.199,33.5424
799,2022/10/28,13:18,41-57.78N,143-27.88E,29,13.181,33.5604
800,2022/10/28,13:19,41-58.06N,143-28.10E,30,13.192,33.557
801,2022/10/28,13:20,41-58.34N,143-28.32E,30,13.184,33.5553
802,2022/10/28,13:21,41-58.62N,143-28.53E,29,13.143,33.5582
803,2022/10/28,13:22,41-58.91N,143-28.76E,30,13.136,33.556
804,2022/10/28,13:23,41-59.19N,143-28.97E,29,13.122,33.5587
805,2022/10/28,13:24,41-59.47N,143-29.19E,29,13.14,33.5356
806,2022/10/28,13:25,41-59.75N,143-29.40E,29,13.127,33.5494
807,2022/10/28,13:26,42-00.03N,143-29.61E,29,13.121,33.555
808,2022/10/28,13:27,42-00.30N,143-29.81E,29,13.181,33.5614
809,2022/10/28,13:28,42-00.58N,143-30.03E,30,13.213,33.5558
810,2022/10/28,13:29,42-00.86N,143-30.24E,29,13.194,33.5678
811,2022/10/28,13:30,42-01.14N,143-30.46E,29,13.218,33.5652
812,2022/10/28,13:31,42-01.44N,143-30.69E,29,13.3,33.5425
813,2022/10/28,13:32,42-01.72N,143-30.91E,29,13.319,33.5688
814,2022/10/28,13:33,42-02.00N,143-31.11E,29,13.278,33.5493
815,2022/10/28,13:34,42-02.23N,143-31.30E,29,13.295,33.5323
816,2022/10/28,13:35,42-02.51N,143-31.51E,29,13.328,33.517
817,2022/10/28,13:36,42-02.79N,143-31.72E,29,13.348,33.5126
818,2022/10/28,13:37,42-03.11N,143-31.97E,29,13.384,33.5011
819,2022/10/28,13:38,42-03.38N,143-32.17E,29,13.409,33.5062
820,2022/10/28,13:39,42-03.68N,143-32.40E,29,13.393,33.4925
821,2022/10/28,13:40,42-03.95N,143-32.60E,29,13.405,33.4959
822,2022/10/28,13:41,42-04.24N,143-32.82E,29,13.446,33.4898
823,2022/10/28,13:42,42-04.52N,143-33.03E,29,13.462,33.4797
824,2022/10/28,13:43,42-04.80N,143-33.25E,29,13.495,33.4801
825,2022/10/28,13:44,42-05.10N,143-33.48E,29,13.493,33.4732
826,2022/10/28,13:45,42-05.35N,143-33.67E,29,13.505,33.4712
827,2022/10/28,13:46,42-05.65N,143-33.89E,29,13.454,33.4792
828,2022/10/28,13:47,42-05.94N,143-34.10E,29,13.303,33.4811
829,2022/10/28,13:48,42-06.22N,143-34.32E,29,13.259,33.502
830,2022/10/28,13:49,42-06.46N,143-34.51E,29,13.259,33.5345
831,2022/10/28,13:50,42-06.74N,143-34.72E,29,13.239,33.5461
832,2022/10/28,13:51,42-07.02N,143-34.93E,29,13.235,33.5517
833,2022/10/28,13:52,42-07.31N,143-35.15E,29,13.234,33.5537
834,2022/10/28,13:53,42-07.60N,143-35.37E,29,13.21,33.5565
835,2022/10/28,13:54,42-07.88N,143-35.58E,29,13.2,33.5411
836,2022/10/28,13:55,42-08.17N,143-35.80E,29,13.235,33.5504
837,2022/10/28,13:56,42-08.49N,143-36.05E,29,13.218,33.5513
838,2022/10/28,13:57,42-08.78N,143-36.27E,29,13.183,33.5563
839,2022/10/28,13:58,42-09.05N,143-36.48E,29,13.172,33.5549
840,2022/10/28,13:59,42-09.33N,143-36.69E,29,13.186,33.5523
841,2022/10/28,14:00,42-09.63N,143-36.94E,30,13.168,33.5483
842,2022/10/28,14:01,42-09.88N,143-37.13E,30,13.165,33.5508
843,2022/10/28,14:02,42-10.17N,143-37.36E,30,13.197,33.5904
844,2022/10/28,14:03,42-10.48N,143-37.61E,30,13.212,33.5545
845,2022/10/28,14:04,42-10.78N,143-37.84E,30,13.214,33.5555
846,2022/10/28,14:05,42-11.08N,143-38.08E,30,13.181,33.5648
847,2022/10/28,14:06,42-11.34N,143-38.29E,30,13.15,33.5542
848,2022/10/28,14:07,42-11.62N,143-38.51E,30,13.137,33.5468
849,2022/10/28,14:08,42-11.91N,143-38.73E,30,13.121,33.5436
850,2022/10/28,14:09,42-12.18N,143-38.95E,30,13.097,33.5438
851,2022/10/28,14:10,42-12.46N,143-39.18E,30,13.148,33.5363
852,2022/10/28,14:11,42-12.75N,143-39.41E,31,13.178,33.5044
853,2022/10/28,14:12,42-13.03N,143-39.63E,30,13.269,33.4851
854,2022/10/28,14:13,42-13.30N,143-39.85E,30,13.229,33.4749
855,2022/10/28,14:14,42-13.55N,143-40.04E,30,13.175,33.4418
856,2022/10/28,14:15,42-13.83N,143-40.26E,29,13.116,33.4475
857,2022/10/28,14:16,42-14.11N,143-40.48E,29,13.13,33.4703
858,2022/10/28,14:17,42-14.40N,143-40.70E,29,13.194,33.4616
859,2022/10/28,14:18,42-14.68N,143-40.92E,30,13.266,33.4477
860,2022/10/28,14:19,42-14.97N,143-41.14E,29,13.333,33.4287
861,2022/10/28,14:20,42-15.25N,143-41.36E,30,13.396,33.4078
862,2022/10/28,14:21,42-15.52N,143-41.58E,30,13.403,33.4156
863,2022/10/28,14:22,42-15.81N,143-41.80E,30,13.4,33.4229
864,2022/10/28,14:23,42-16.10N,143-42.03E,30,13.403,33.4371
865,2022/10/28,14:24,42-16.37N,143-42.24E,30,13.388,33.4523
866,2022/10/28,14:25,42-16.66N,143-42.47E,30,13.327,33.4652
867,2022/10/28,14:26,42-16.93N,143-42.69E,30,13.349,33.4756
868,2022/10/28,14:27,42-17.22N,143-42.92E,31,13.331,33.4766
869,2022/10/28,14:28,42-17.49N,143-43.14E,31,13.329,33.4714
870,2022/10/28,14:29,42-17.76N,143-43.37E,30,13.366,33.4671
871,2022/10/28,14:30,42-18.05N,143-43.60E,30,13.41,33.463